| time (UTC) | temp F | wind direction | speed MPH | gust MPH | rain 1hr in | rain 24hr in | rain mn in | humidity % | barometer mb |
| 20260507024459 | 58 | 40 | 4.0 | 8.0 | 0.00 | 0.02 | 0.02 | 71 | 1018.7 |
| 20260507023955 | 59 | 23 | 4.0 | 8.0 | 0.00 | 0.02 | 0.02 | 71 | 1018.3 |
| 20260507023452 | 59 | 26 | 3.0 | 8.0 | 0.00 | 0.02 | 0.02 | 71 | 1018.4 |
| 20260507022949 | 59 | 12 | 9.0 | 9.0 | 0.00 | 0.02 | 0.02 | 71 | 1018.3 |
| 20260507022447 | 59 | 27 | 10.0 | 11.0 | 0.00 | 0.02 | 0.02 | 71 | 1018.2 |
| 20260507021941 | 59 | 62 | 10.0 | 11.0 | 0.00 | 0.02 | 0.02 | 71 | 1018.3 |
| 20260507021438 | 59 | 40 | 5.0 | 7.0 | 0.00 | 0.02 | 0.02 | 71 | 1018.0 |
| 20260507020935 | 59 | 17 | 7.0 | 9.0 | 0.00 | 0.02 | 0.02 | 70 | 1017.9 |
| 20260507020432 | 59 | 30 | 3.0 | 11.0 | 0.00 | 0.02 | 0.02 | 70 | 1017.8 |
| 20260507015929 | 59 | 21 | 8.0 | 9.0 | 0.00 | 0.02 | 0.02 | 70 | 1017.7 |
| 20260507015427 | 59 | 347 | 5.0 | 10.0 | 0.00 | 0.02 | 0.02 | 71 | 1017.4 |
| 20260507014924 | 59 | 347 | 6.0 | 12.0 | 0.00 | 0.02 | 0.02 | 70 | 1017.5 |
| 20260507014420 | 59 | 39 | 5.0 | 12.0 | 0.00 | 0.02 | 0.02 | 70 | 1017.2 |
| 20260507013916 | 59 | 0 | 5.0 | 9.0 | 0.00 | 0.02 | 0.02 | 70 | 1017.0 |
| 20260507013414 | 60 | 21 | 13.0 | 15.0 | 0.00 | 0.02 | 0.02 | 70 | 1017.0 |
| 20260507012912 | 60 | 356 | 3.0 | 10.0 | 0.00 | 0.02 | 0.02 | 70 | 1016.9 |
| 20260507012408 | 60 | 26 | 5.0 | 8.0 | 0.00 | 0.02 | 0.02 | 70 | 1016.6 |
| 20260507011904 | 60 | 33 | 5.0 | 13.0 | 0.00 | 0.02 | 0.02 | 69 | 1016.7 |
| 20260507011401 | 61 | 36 | 6.0 | 9.0 | 0.00 | 0.02 | 0.02 | 69 | 1016.6 |
| 20260507010855 | 61 | 339 | 4.0 | 7.0 | 0.00 | 0.02 | 0.02 | 70 | 1016.3 |
| 20260507010351 | 61 | 9 | 3.0 | 11.0 | 0.00 | 0.02 | 0.02 | 69 | 1016.5 |
| 20260507005848 | 61 | 31 | 3.0 | 7.0 | 0.00 | 0.02 | 0.02 | 70 | 1016.3 |
| 20260507005344 | 61 | 333 | 4.0 | 7.0 | 0.00 | 0.02 | 0.02 | 70 | 1016.2 |
| 20260507004836 | 61 | 29 | 3.0 | 7.0 | 0.00 | 0.02 | 0.02 | 70 | 1016.3 |
| 20260507004333 | 61 | 35 | 3.0 | 10.0 | 0.00 | 0.02 | 0.02 | 70 | 1016.2 |
| 20260507003831 | 61 | 8 | 5.0 | 8.0 | 0.00 | 0.02 | 0.02 | 70 | 1016.2 |
| 20260507003326 | 62 | 0 | 7.0 | 11.0 | 0.00 | 0.02 | 0.02 | 69 | 1015.9 |
| 20260507002820 | 62 | 3 | 4.0 | 7.0 | 0.00 | 0.02 | 0.02 | 69 | 1015.8 |
| 20260507002317 | 62 | 66 | 4.0 | 7.0 | 0.00 | 0.02 | 0.02 | 69 | 1015.9 |
| 20260507001809 | 62 | 51 | 6.0 | 8.0 | 0.00 | 0.02 | 0.02 | 68 | 1015.8 |
| 20260507001306 | 62 | 358 | 4.0 | 8.0 | 0.00 | 0.02 | 0.02 | 69 | 1015.6 |
| 20260507000802 | 62 | 31 | 9.0 | 10.0 | 0.00 | 0.02 | 0.02 | 68 | 1015.6 |
| 20260507000258 | 62 | 63 | 5.0 | 10.0 | 0.00 | 0.02 | 0.02 | 68 | 1015.6 |
| 20260506235749 | 62 | 47 | 8.0 | 12.0 | 0.00 | 0.02 | 0.02 | 69 | 1015.6 |
| 20260506235244 | 62 | 18 | 7.0 | 10.0 | 0.00 | 0.02 | 0.02 | 68 | 1015.6 |
| 20260506234742 | 62 | 21 | 7.0 | 9.0 | 0.00 | 0.02 | 0.02 | 68 | 1015.4 |
| 20260506234239 | 62 | 19 | 12.0 | 12.0 | 0.00 | 0.02 | 0.02 | 68 | 1015.6 |
| 20260506233736 | 62 | 0 | 6.0 | 13.0 | 0.00 | 0.02 | 0.02 | 67 | 1015.6 |
| 20260506233232 | 62 | 30 | 9.0 | 10.0 | 0.00 | 0.02 | 0.02 | 68 | 1015.5 |
| 20260506232724 | 62 | 36 | 5.0 | 13.0 | 0.00 | 0.02 | 0.02 | 68 | 1015.5 |
| 20260506232218 | 62 | 3 | 8.0 | 13.0 | 0.00 | 0.02 | 0.02 | 68 | 1015.6 |
| 20260506231716 | 62 | 69 | 6.0 | 8.0 | 0.00 | 0.02 | 0.02 | 68 | 1015.4 |
| 20260506231214 | 62 | 40 | 3.0 | 11.0 | 0.00 | 0.02 | 0.02 | 68 | 1015.4 |
| 20260506230710 | 62 | 47 | 6.0 | 13.0 | 0.00 | 0.02 | 0.02 | 67 | 1015.3 |
| 20260506230208 | 63 | 11 | 7.0 | 10.0 | 0.00 | 0.02 | 0.02 | 68 | 1015.3 |
| 20260506225704 | 63 | 0 | 4.0 | 11.0 | 0.00 | 0.02 | 0.02 | 67 | 1015.4 |
| 20260506225201 | 63 | 54 | 5.0 | 7.0 | 0.00 | 0.02 | 0.02 | 67 | 1015.3 |
| 20260506224657 | 63 | 44 | 5.0 | 7.0 | 0.00 | 0.02 | 0.02 | 68 | 1015.2 |
| 20260506224155 | 63 | 8 | 3.0 | 8.0 | 0.00 | 0.02 | 0.02 | 67 | 1014.9 |
| 20260506223651 | 63 | 35 | 10.0 | 11.0 | 0.00 | 0.02 | 0.02 | 67 | 1015.1 |
| 20260506223146 | 63 | 9 | 2.0 | 11.0 | 0.00 | 0.02 | 0.02 | 68 | 1015.0 |
| 20260506222644 | 63 | 9 | 3.0 | 8.0 | 0.00 | 0.02 | 0.02 | 68 | 1015.3 |
| 20260506222139 | 64 | 348 | 4.0 | 8.0 | 0.00 | 0.02 | 0.02 | 67 | 1015.3 |
| 20260506221638 | 64 | 14 | 3.0 | 9.0 | 0.00 | 0.02 | 0.02 | 66 | 1015.0 |
| 20260506221135 | 64 | 348 | 5.0 | 8.0 | 0.00 | 0.02 | 0.02 | 66 | 1014.9 |
| 20260506220632 | 64 | 359 | 7.0 | 12.0 | 0.00 | 0.02 | 0.02 | 66 | 1014.9 |
| 20260506220127 | 64 | 14 | 7.0 | 11.0 | 0.00 | 0.02 | 0.02 | 67 | 1015.0 |
| 20260506215624 | 64 | 354 | 6.0 | 11.0 | 0.00 | 0.02 | 0.02 | 66 | 1014.9 |
| 20260506215119 | 64 | 319 | 8.0 | 10.0 | 0.00 | 0.02 | 0.02 | 66 | 1014.9 |
| 20260506214616 | 64 | 339 | 3.0 | 9.0 | 0.00 | 0.02 | 0.02 | 66 | 1014.9 |
| 20260506214114 | 64 | 26 | 7.0 | 11.0 | 0.00 | 0.02 | 0.02 | 66 | 1014.9 |
| 20260506213612 | 64 | 58 | 9.0 | 10.0 | 0.00 | 0.02 | 0.02 | 66 | 1014.9 |
| 20260506213109 | 63 | 339 | 9.0 | 9.0 | 0.00 | 0.02 | 0.02 | 67 | 1014.9 |
| 20260506212606 | 63 | 23 | 4.0 | 5.0 | 0.00 | 0.02 | 0.02 | 67 | 1015.3 |
| 20260506212101 | 63 | 26 | 3.0 | 8.0 | 0.00 | 0.02 | 0.02 | 67 | 1015.4 |
| 20260506211557 | 63 | 20 | 8.0 | 10.0 | 0.00 | 0.02 | 0.02 | 67 | 1015.1 |
| 20260506211054 | 64 | 12 | 8.0 | 10.0 | 0.00 | 0.02 | 0.02 | 67 | 1015.0 |
| 20260506210550 | 63 | 338 | 3.0 | 8.0 | 0.00 | 0.02 | 0.02 | 67 | 1014.9 |
| 20260506210047 | 63 | 24 | 6.0 | 11.0 | 0.00 | 0.02 | 0.02 | 66 | 1015.1 |
| 20260506205544 | 64 | 340 | 7.0 | 7.0 | 0.00 | 0.02 | 0.02 | 66 | 1015.0 |
| 20260506205039 | 63 | 63 | 2.0 | 6.0 | 0.00 | 0.02 | 0.02 | 69 | 1015.1 |
| 20260506204537 | 62 | 19 | 3.0 | 9.0 | 0.00 | 0.02 | 0.02 | 67 | 1015.3 |
| 20260506204034 | 62 | 34 | 6.0 | 10.0 | 0.00 | 0.02 | 0.02 | 68 | 1015.2 |
| 20260506203532 | 62 | 36 | 9.0 | 12.0 | 0.00 | 0.02 | 0.02 | 67 | 1015.0 |
| 20260506203029 | 62 | 71 | 7.0 | 9.0 | 0.00 | 0.02 | 0.02 | 69 | 1015.2 |
| 20260506202526 | 62 | 19 | 6.0 | 9.0 | 0.00 | 0.02 | 0.02 | 68 | 1015.7 |
| 20260506202022 | 62 | 353 | 6.0 | 8.0 | 0.00 | 0.02 | 0.02 | 68 | 1015.5 |
| 20260506201520 | 61 | 69 | 3.0 | 7.0 | 0.00 | 0.02 | 0.02 | 68 | 1015.6 |
| 20260506201016 | 61 | 39 | 6.0 | 10.0 | 0.00 | 0.02 | 0.02 | 69 | 1015.8 |
| 20260506200513 | 61 | 61 | 6.0 | 9.0 | 0.00 | 0.02 | 0.02 | 68 | 1015.7 |
| 20260506200009 | 62 | 35 | 6.0 | 10.0 | 0.00 | 0.02 | 0.02 | 69 | 1015.9 |
| 20260506195506 | 61 | 350 | 4.0 | 6.0 | 0.00 | 0.02 | 0.02 | 69 | 1016.0 |
| 20260506194956 | 60 | 83 | 3.0 | 10.0 | 0.00 | 0.02 | 0.02 | 70 | 1016.0 |
| 20260506194454 | 60 | 91 | 9.0 | 9.0 | 0.00 | 0.02 | 0.02 | 71 | 1016.1 |
| 20260506193950 | 60 | 87 | 8.0 | 8.0 | 0.00 | 0.02 | 0.02 | 69 | 1016.3 |
| 20260506193448 | 60 | 100 | 6.0 | 12.0 | 0.00 | 0.02 | 0.02 | 69 | 1016.1 |
| 20260506192944 | 60 | 342 | 2.0 | 6.0 | 0.00 | 0.02 | 0.02 | 69 | 1016.1 |
| 20260506192441 | 60 | 56 | 4.0 | 8.0 | 0.00 | 0.02 | 0.02 | 71 | 1016.1 |
| 20260506191932 | 60 | 3 | 2.0 | 6.0 | 0.00 | 0.02 | 0.02 | 69 | 1015.8 |
| 20260506191429 | 60 | 356 | 7.0 | 11.0 | 0.00 | 0.02 | 0.02 | 68 | 1016.1 |
| 20260506190926 | 60 | 28 | 5.0 | 11.0 | 0.00 | 0.02 | 0.02 | 69 | 1015.7 |
| 20260506190422 | 60 | 319 | 7.0 | 13.0 | 0.00 | 0.02 | 0.02 | 69 | 1015.6 |
| 20260506185919 | 60 | 348 | 8.0 | 12.0 | 0.00 | 0.02 | 0.02 | 69 | 1015.5 |
| 20260506185416 | 59 | 330 | 5.0 | 11.0 | 0.00 | 0.02 | 0.02 | 72 | 1015.4 |
| 20260506184913 | 58 | 43 | 8.0 | 13.0 | 0.00 | 0.02 | 0.02 | 71 | 1015.4 |
| 20260506184410 | 58 | 336 | 10.0 | 13.0 | 0.00 | 0.02 | 0.02 | 71 | 1015.2 |
| 20260506183908 | 58 | 41 | 9.0 | 11.0 | 0.00 | 0.02 | 0.02 | 73 | 1015.2 |
| 20260506183403 | 58 | 29 | 7.0 | 13.0 | 0.00 | 0.02 | 0.02 | 73 | 1015.3 |
| 20260506182900 | 57 | 20 | 9.0 | 12.0 | 0.00 | 0.02 | 0.02 | 73 | 1015.2 |
| 20260506182357 | 57 | 350 | 8.0 | 14.0 | 0.00 | 0.02 | 0.02 | 72 | 1015.4 |
| 20260506181854 | 57 | 28 | 3.0 | 14.0 | 0.00 | 0.02 | 0.02 | 74 | 1015.4 |
| 20260506181352 | 56 | 13 | 4.0 | 11.0 | 0.00 | 0.02 | 0.02 | 75 | 1015.5 |
| 20260506180849 | 56 | 29 | 6.0 | 10.0 | 0.00 | 0.02 | 0.02 | 75 | 1015.4 |
| 20260506180345 | 56 | 319 | 6.0 | 12.0 | 0.00 | 0.02 | 0.02 | 76 | 1015.3 |
| 20260506175842 | 56 | 9 | 5.0 | 17.0 | 0.00 | 0.02 | 0.02 | 76 | 1015.5 |
| 20260506175338 | 55 | 68 | 12.0 | 14.0 | 0.00 | 0.02 | 0.02 | 76 | 1015.4 |
| 20260506174835 | 56 | 20 | 6.0 | 12.0 | 0.00 | 0.02 | 0.02 | 76 | 1015.4 |
| 20260506174332 | 55 | 5 | 4.0 | 18.0 | 0.00 | 0.02 | 0.02 | 77 | 1015.4 |
| 20260506173825 | 55 | 32 | 5.0 | 12.0 | 0.00 | 0.02 | 0.02 | 77 | 1015.3 |
| 20260506173321 | 55 | 18 | 7.0 | 11.0 | 0.00 | 0.02 | 0.02 | 78 | 1015.6 |
| 20260506172819 | 55 | 18 | 9.0 | 15.0 | 0.00 | 0.02 | 0.02 | 77 | 1015.4 |
| 20260506172315 | 54 | 36 | 10.0 | 14.0 | 0.00 | 0.02 | 0.02 | 77 | 1015.3 |
| 20260506171812 | 54 | 87 | 7.0 | 16.0 | 0.00 | 0.02 | 0.02 | 77 | 1015.7 |
| 20260506171309 | 54 | 39 | 2.0 | 9.0 | 0.00 | 0.02 | 0.02 | 79 | 1015.9 |
| 20260506170807 | 54 | 52 | 9.0 | 17.0 | 0.00 | 0.02 | 0.02 | 78 | 1015.9 |
| 20260506170303 | 54 | 60 | 4.0 | 10.0 | 0.00 | 0.02 | 0.02 | 79 | 1016.5 |
| 20260506165802 | 54 | 29 | 8.0 | 13.0 | 0.00 | 0.02 | 0.02 | 79 | 1016.2 |
| 20260506165259 | 54 | 40 | 4.0 | 12.0 | 0.00 | 0.02 | 0.02 | 79 | 1016.5 |
| 20260506164756 | 54 | 15 | 6.0 | 13.0 | 0.00 | 0.02 | 0.02 | 80 | 1016.5 |
| 20260506164252 | 54 | 55 | 9.0 | 14.0 | 0.00 | 0.02 | 0.02 | 80 | 1016.1 |
| 20260506163749 | 54 | 3 | 2.0 | 12.0 | 0.00 | 0.02 | 0.02 | 82 | 1016.5 |
| 20260506163244 | 54 | 356 | 5.0 | 10.0 | 0.00 | 0.02 | 0.02 | 83 | 1016.2 |
| 20260506162740 | 54 | 16 | 6.0 | 9.0 | 0.00 | 0.02 | 0.02 | 83 | 1016.0 |
| 20260506162238 | 53 | 6 | 5.0 | 10.0 | 0.00 | 0.02 | 0.02 | 83 | 1016.0 |
| 20260506161735 | 53 | 1 | 5.0 | 11.0 | 0.00 | 0.02 | 0.02 | 83 | 1016.1 |
| 20260506161232 | 53 | 19 | 5.0 | 9.0 | 0.00 | 0.02 | 0.02 | 83 | 1016.3 |
| 20260506160730 | 53 | 9 | 5.0 | 11.0 | 0.00 | 0.02 | 0.02 | 84 | 1016.6 |
| 20260506160226 | 53 | 12 | 3.0 | 10.0 | 0.00 | 0.02 | 0.02 | 85 | 1015.6 |
| 20260506155725 | 53 | 13 | 5.0 | 12.0 | 0.00 | 0.02 | 0.02 | 85 | 1015.3 |
| 20260506155222 | 53 | 343 | 5.0 | 12.0 | 0.00 | 0.02 | 0.02 | 85 | 1015.2 |
| 20260506153329 | 53 | 246 | 2.0 | 3.0 | 0.00 | 0.00 | 0.00 | 83 | 1017.3 |
| 20260506152826 | 53 | 309 | 4.0 | 5.0 | 0.00 | 0.00 | 0.00 | 83 | 1017.3 |
| 20260506152323 | 53 | 0 | 3.0 | 3.0 | 0.00 | 0.00 | 0.00 | 82 | 1017.3 |
| 20260506151822 | 53 | 349 | 5.0 | 6.0 | 0.00 | 0.00 | 0.00 | 81 | 1017.4 |
| 20260506151318 | 53 | 102 | 0.0 | 4.0 | 0.00 | 0.00 | 0.00 | 81 | 1017.4 |
| 20260506150815 | 53 | 28 | 4.0 | 5.0 | 0.00 | 0.00 | 0.00 | 81 | 1016.8 |
| 20260506150312 | 53 | 289 | 5.0 | 5.0 | 0.00 | 0.00 | 0.00 | 80 | 1016.7 |
| 20260506145809 | 53 | 355 | 3.0 | 6.0 | 0.00 | 0.00 | 0.00 | 81 | 1016.5 |
| 20260506145306 | 53 | 6 | 2.0 | 8.0 | 0.00 | 0.00 | 0.00 | 81 | 1015.7 |
| 20260506144803 | 53 | 12 | 6.0 | 11.0 | 0.00 | 0.00 | 0.00 | 81 | 1015.6 |
| 20260506144259 | 53 | 35 | 5.0 | 8.0 | 0.00 | 0.00 | 0.00 | 81 | 1016.1 |
| 20260506143758 | 53 | 21 | 4.0 | 9.0 | 0.00 | 0.00 | 0.00 | 81 | 1016.6 |
| 20260506143254 | 53 | 33 | 5.0 | 6.0 | 0.00 | 0.00 | 0.00 | 81 | 1016.5 |
| 20260506142753 | 53 | 13 | 5.0 | 10.0 | 0.00 | 0.00 | 0.00 | 81 | 1016.1 |
| 20260506142250 | 53 | 35 | 2.0 | 7.0 | 0.00 | 0.00 | 0.00 | 81 | 1016.3 |
| 20260506141748 | 52 | 34 | 7.0 | 11.0 | 0.00 | 0.00 | 0.00 | 82 | 1016.0 |
| 20260506141246 | 52 | 354 | 3.0 | 9.0 | 0.00 | 0.00 | 0.00 | 82 | 1016.3 |
| 20260506140744 | 52 | 355 | 3.0 | 9.0 | 0.00 | 0.00 | 0.00 | 81 | 1016.5 |
| 20260506140241 | 52 | 352 | 7.0 | 14.0 | 0.00 | 0.00 | 0.00 | 81 | 1015.6 |
| 20260506135737 | 52 | 44 | 4.0 | 9.0 | 0.00 | 0.00 | 0.00 | 82 | 1015.5 |
| 20260506135234 | 52 | 34 | 7.0 | 13.0 | 0.00 | 0.00 | 0.00 | 82 | 1015.4 |
| 20260506134731 | 52 | 7 | 10.0 | 12.0 | 0.00 | 0.00 | 0.00 | 82 | 1015.1 |
| 20260506134227 | 52 | 31 | 11.0 | 15.0 | 0.00 | 0.00 | 0.00 | 82 | 1015.1 |
| 20260506133724 | 52 | 4 | 5.0 | 9.0 | 0.00 | 0.00 | 0.00 | 82 | 1015.0 |
| 20260506133221 | 52 | 24 | 7.0 | 12.0 | 0.00 | 0.00 | 0.00 | 82 | 1015.4 |
| 20260506132718 | 52 | 353 | 4.0 | 11.0 | 0.00 | 0.00 | 0.00 | 82 | 1015.4 |
| 20260506132215 | 52 | 359 | 10.0 | 12.0 | 0.00 | 0.00 | 0.00 | 82 | 1015.2 |
| 20260506131713 | 52 | 346 | 4.0 | 11.0 | 0.00 | 0.00 | 0.00 | 83 | 1015.0 |
| 20260506131209 | 52 | 16 | 9.0 | 13.0 | 0.00 | 0.00 | 0.00 | 83 | 1014.9 |
| 20260506130705 | 52 | 16 | 9.0 | 12.0 | 0.00 | 0.00 | 0.00 | 83 | 1014.9 |
| 20260506130203 | 52 | 353 | 4.0 | 12.0 | 0.00 | 0.00 | 0.00 | 83 | 1014.8 |
| 20260506125701 | 51 | 25 | 4.0 | 8.0 | 0.00 | 0.00 | 0.00 | 83 | 1014.8 |
| 20260506125158 | 51 | 37 | 8.0 | 11.0 | 0.00 | 0.00 | 0.00 | 83 | 1014.6 |
| 20260506124656 | 51 | 352 | 6.0 | 10.0 | 0.00 | 0.00 | 0.00 | 83 | 1014.6 |
| 20260506124154 | 51 | 8 | 3.0 | 11.0 | 0.00 | 0.00 | 0.00 | 83 | 1014.9 |
| 20260506123651 | 51 | 14 | 11.0 | 11.0 | 0.00 | 0.00 | 0.00 | 83 | 1014.7 |
| 20260506123150 | 51 | 39 | 8.0 | 9.0 | 0.00 | 0.00 | 0.00 | 83 | 1014.5 |
| 20260506122646 | 51 | 344 | 8.0 | 11.0 | 0.00 | 0.00 | 0.00 | 83 | 1014.7 |
| 20260506122144 | 51 | 3 | 9.0 | 13.0 | 0.00 | 0.00 | 0.00 | 83 | 1014.6 |
| 20260506121641 | 51 | 350 | 5.0 | 11.0 | 0.00 | 0.00 | 0.00 | 83 | 1014.5 |
| 20260506121137 | 51 | 351 | 5.0 | 13.0 | 0.00 | 0.00 | 0.00 | 83 | 1014.4 |
| 20260506120636 | 52 | 2 | 7.0 | 11.0 | 0.00 | 0.00 | 0.00 | 83 | 1014.3 |
| 20260506120132 | 52 | 1 | 6.0 | 9.0 | 0.00 | 0.00 | 0.00 | 82 | 1014.5 |
| 20260506115631 | 52 | 9 | 7.0 | 11.0 | 0.00 | 0.00 | 0.00 | 82 | 1014.4 |
| 20260506115129 | 52 | 356 | 6.0 | 9.0 | 0.00 | 0.00 | 0.00 | 82 | 1014.4 |
| 20260506114626 | 52 | 23 | 6.0 | 15.0 | 0.00 | 0.00 | 0.00 | 82 | 1014.1 |
| 20260506114124 | 52 | 350 | 5.0 | 9.0 | 0.00 | 0.00 | 0.00 | 81 | 1014.3 |
| 20260506113622 | 52 | 322 | 7.0 | 14.0 | 0.00 | 0.00 | 0.00 | 81 | 1014.0 |
| 20260506113119 | 52 | 9 | 7.0 | 12.0 | 0.00 | 0.00 | 0.00 | 81 | 1013.7 |
| 20260506112615 | 52 | 1 | 9.0 | 11.0 | 0.00 | 0.00 | 0.00 | 80 | 1013.9 |
| 20260506112113 | 53 | 53 | 5.0 | 8.0 | 0.00 | 0.00 | 0.00 | 79 | 1013.6 |
| 20260506111610 | 53 | 23 | 9.0 | 10.0 | 0.00 | 0.00 | 0.00 | 78 | 1013.6 |
| 20260506111108 | 53 | 4 | 4.0 | 6.0 | 0.00 | 0.00 | 0.00 | 78 | 1013.7 |
| 20260506110605 | 53 | 9 | 5.0 | 10.0 | 0.00 | 0.00 | 0.00 | 77 | 1013.7 |
| 20260506105558 | 53 | 356 | 5.0 | 12.0 | 0.00 | 0.00 | 0.00 | 76 | 1013.3 |
| 20260506105056 | 54 | 8 | 4.0 | 10.0 | 0.00 | 0.00 | 0.00 | 76 | 1013.3 |
| 20260506104554 | 54 | 4 | 4.0 | 7.0 | 0.00 | 0.00 | 0.00 | 76 | 1013.0 |
| 20260506104051 | 54 | 351 | 5.0 | 9.0 | 0.00 | 0.00 | 0.00 | 76 | 1013.3 |
| 20260506103548 | 54 | 9 | 5.0 | 9.0 | 0.00 | 0.00 | 0.00 | 76 | 1013.1 |
| 20260506103045 | 54 | 331 | 8.0 | 10.0 | 0.00 | 0.00 | 0.00 | 76 | 1013.2 |
| 20260506102543 | 54 | 342 | 8.0 | 11.0 | 0.00 | 0.00 | 0.00 | 76 | 1013.1 |
| 20260506102040 | 54 | 23 | 7.0 | 12.0 | 0.00 | 0.00 | 0.00 | 76 | 1013.0 |
| 20260506101537 | 54 | 9 | 8.0 | 14.0 | 0.00 | 0.00 | 0.00 | 75 | 1013.0 |
| 20260506101034 | 54 | 352 | 8.0 | 11.0 | 0.00 | 0.00 | 0.00 | 75 | 1013.0 |
| 20260506100532 | 54 | 358 | 10.0 | 13.0 | 0.00 | 0.00 | 0.00 | 74 | 1012.7 |
| 20260506100030 | 54 | 323 | 7.0 | 9.0 | 0.00 | 0.00 | 0.00 | 74 | 1012.6 |
| 20260506095529 | 54 | 27 | 6.0 | 12.0 | 0.00 | 0.00 | 0.00 | 73 | 1012.6 |
| 20260506095024 | 54 | 11 | 6.0 | 9.0 | 0.00 | 0.00 | 0.00 | 73 | 1012.6 |
| 20260506094522 | 54 | 7 | 6.0 | 9.0 | 0.00 | 0.00 | 0.00 | 73 | 1012.5 |
| 20260506094020 | 55 | 0 | 7.0 | 9.0 | 0.00 | 0.00 | 0.00 | 73 | 1012.4 |
| 20260506093518 | 55 | 28 | 2.0 | 9.0 | 0.00 | 0.00 | 0.00 | 74 | 1012.1 |
| 20260506093015 | 55 | 24 | 3.0 | 9.0 | 0.00 | 0.00 | 0.00 | 74 | 1012.1 |
| 20260506092513 | 55 | 26 | 4.0 | 9.0 | 0.00 | 0.00 | 0.00 | 73 | 1012.2 |
| 20260506092009 | 55 | 30 | 5.0 | 10.0 | 0.00 | 0.00 | 0.00 | 73 | 1012.3 |
| 20260506091508 | 55 | 22 | 6.0 | 8.0 | 0.00 | 0.00 | 0.00 | 74 | 1012.1 |
| 20260506091005 | 55 | 348 | 6.0 | 12.0 | 0.00 | 0.00 | 0.00 | 73 | 1012.1 |
| 20260506090503 | 55 | 343 | 4.0 | 9.0 | 0.00 | 0.00 | 0.00 | 73 | 1012.1 |
| 20260506085958 | 55 | 352 | 4.0 | 11.0 | 0.00 | 0.00 | 0.00 | 73 | 1012.0 |
| 20260506085456 | 55 | 9 | 7.0 | 9.0 | 0.00 | 0.00 | 0.00 | 74 | 1011.8 |
| 20260506084952 | 55 | 22 | 6.0 | 9.0 | 0.00 | 0.00 | 0.00 | 73 | 1011.8 |
| 20260506084449 | 55 | 2 | 5.0 | 13.0 | 0.00 | 0.00 | 0.00 | 73 | 1011.8 |
| 20260506083945 | 55 | 341 | 4.0 | 7.0 | 0.00 | 0.00 | 0.00 | 73 | 1011.8 |
| 20260506083443 | 55 | 346 | 5.0 | 9.0 | 0.00 | 0.00 | 0.00 | 74 | 1012.1 |
| 20260506082940 | 55 | 358 | 5.0 | 10.0 | 0.00 | 0.00 | 0.00 | 74 | 1011.9 |
| 20260506082437 | 55 | 348 | 7.0 | 10.0 | 0.00 | 0.00 | 0.00 | 74 | 1011.8 |
| 20260506081932 | 56 | 9 | 7.0 | 9.0 | 0.00 | 0.00 | 0.00 | 75 | 1011.7 |
| 20260506081431 | 56 | 348 | 3.0 | 8.0 | 0.00 | 0.00 | 0.00 | 75 | 1011.8 |
| 20260506080928 | 56 | 24 | 3.0 | 8.0 | 0.00 | 0.00 | 0.00 | 75 | 1011.8 |
| 20260506080424 | 56 | 345 | 8.0 | 12.0 | 0.00 | 0.00 | 0.00 | 75 | 1011.7 |
| 20260506073409 | 56 | 40 | 6.0 | 9.0 | 0.00 | 0.00 | 0.00 | 75 | 1011.1 |
| 20260506072906 | 55 | 353 | 3.0 | 8.0 | 0.00 | 0.00 | 0.00 | 76 | 1011.0 |
| 20260506072403 | 56 | 12 | 6.0 | 9.0 | 0.00 | 0.00 | 0.00 | 75 | 1011.0 |
| 20260506071900 | 56 | 22 | 5.0 | 12.0 | 0.00 | 0.00 | 0.00 | 76 | 1011.1 |
| 20260506071359 | 56 | 22 | 3.0 | 9.0 | 0.00 | 0.00 | 0.00 | 76 | 1011.1 |
| 20260506070855 | 56 | 53 | 11.0 | 11.0 | 0.00 | 0.00 | 0.00 | 76 | 1011.0 |
| 20260506070352 | 56 | 22 | 7.0 | 12.0 | 0.00 | 0.00 | 0.00 | 76 | 1010.9 |
| 20260506062329 | 57 | 24 | 6.0 | 10.0 | 0.00 | 0.00 | 0.00 | 76 | 1011.6 |
| 20260506061825 | 57 | 40 | 3.0 | 11.0 | 0.00 | 0.00 | 0.00 | 76 | 1011.3 |
| 20260506061322 | 57 | 44 | 3.0 | 7.0 | 0.00 | 0.00 | 0.00 | 77 | 1011.5 |
| 20260506060820 | 57 | 337 | 5.0 | 8.0 | 0.00 | 0.00 | 0.00 | 77 | 1011.5 |
| 20260506060318 | 57 | 20 | 10.0 | 10.0 | 0.00 | 0.00 | 0.00 | 77 | 1011.2 |
| 20260506051249 | 58 | 7 | 5.0 | 13.0 | 0.00 | 0.00 | 0.00 | 76 | 1011.3 |
| 20260506050747 | 58 | 339 | 8.0 | 11.0 | 0.00 | 0.00 | 0.00 | 76 | 1011.3 |
| 20260506050244 | 59 | 31 | 7.0 | 11.0 | 0.00 | 0.00 | 0.00 | 76 | 1011.5 |
| 20260506044735 | 59 | 19 | 5.0 | 11.0 | 0.00 | 0.00 | 0.00 | 78 | 1011.5 |
| 20260506044232 | 59 | 356 | 6.0 | 8.0 | 0.00 | 0.00 | 0.00 | 78 | 1011.3 |
| 20260506043730 | 59 | 352 | 5.0 | 12.0 | 0.00 | 0.00 | 0.00 | 78 | 1011.2 |
| 20260506043227 | 59 | 25 | 4.0 | 11.0 | 0.00 | 0.00 | 0.00 | 78 | 1011.3 |
| 20260506042726 | 59 | 12 | 5.0 | 10.0 | 0.00 | 0.00 | 0.00 | 78 | 1011.7 |
| 20260506042224 | 59 | 16 | 8.0 | 12.0 | 0.00 | 0.00 | 0.00 | 78 | 1011.3 |
| 20260506041722 | 60 | 358 | 7.0 | 9.0 | 0.00 | 0.00 | 0.00 | 78 | 1011.5 |
| 20260506041219 | 60 | 350 | 5.0 | 11.0 | 0.00 | 0.00 | 0.00 | 79 | 1011.0 |
| 20260506040716 | 60 | 352 | 6.0 | 12.0 | 0.00 | 0.00 | 0.00 | 79 | 1011.1 |
| 20260506040213 | 60 | 22 | 2.0 | 6.0 | 0.00 | 0.00 | 0.00 | 79 | 1011.2 |
| 20260506035710 | 60 | 4 | 9.0 | 12.0 | 0.00 | 0.00 | 0.00 | 78 | 1011.0 |
| 20260506035207 | 60 | 345 | 4.0 | 9.0 | 0.00 | 0.00 | 0.00 | 79 | 1010.8 |
| 20260506034703 | 60 | 352 | 5.0 | 13.0 | 0.00 | 0.00 | 0.00 | 79 | 1011.1 |
| 20260506034201 | 61 | 356 | 7.0 | 12.0 | 0.00 | 0.00 | 0.00 | 78 | 1010.9 |
| 20260506033658 | 61 | 13 | 7.0 | 11.0 | 0.00 | 0.00 | 0.00 | 79 | 1010.6 |
| 20260506033155 | 61 | 41 | 6.0 | 11.0 | 0.00 | 0.00 | 0.00 | 78 | 1010.7 |
| 20260506032652 | 61 | 3 | 5.0 | 13.0 | 0.00 | 0.00 | 0.00 | 78 | 1010.5 |
| 20260506032149 | 61 | 349 | 11.0 | 11.0 | 0.00 | 0.00 | 0.00 | 78 | 1010.6 |
| 20260506031645 | 61 | 14 | 4.0 | 9.0 | 0.00 | 0.00 | 0.00 | 78 | 1010.7 |
| 20260506031142 | 62 | 356 | 6.0 | 11.0 | 0.00 | 0.00 | 0.00 | 77 | 1010.7 |
| 20260506030641 | 62 | 350 | 5.0 | 11.0 | 0.00 | 0.00 | 0.00 | 77 | 1010.7 |
| 20260506030138 | 62 | 354 | 6.0 | 10.0 | 0.00 | 0.00 | 0.00 | 78 | 1010.4 |
| 20260506025635 | 62 | 17 | 5.0 | 13.0 | 0.00 | 0.00 | 0.00 | 77 | 1010.5 |
| 20260506025131 | 62 | 20 | 3.0 | 10.0 | 0.00 | 0.00 | 0.00 | 77 | 1010.2 |